Terug naar catalogus

THORAD DELTA 1 DEB

ActiefSSO
NORAD 8303·DEBRIS·🇺🇸 United States

Gelanceerd Nov 15, 1974 vanaf Vandenberg Space Force Base

Loading…

Volgende Passages (komende 24 uur)

TLE

VersSource: Space-Track

Epoch: Sep 13, 2026, 11:43 UTC

1 08303U 74089BL  26256.48826847  .00000133  00000-0  10989-2 0  9996
2 08303 101.2787  87.7283 0032405 311.0599  77.6528 12.53572782363873

Volg THORAD DELTA 1 DEB in realtime met AllMySat

Download on the App Store